Regional Weather Roundup
Issued by NWS

Home | Current Version | Previous Version | Text Only | Print | Product List | Glossary Off
Versions: 1 2 3 4 5 6 7 8 9 10 11 12 13 14 15 16 17 18 19 20 21 22 23 24 25 26 27 28 29 30 31 32 33 34 35 36 37 38 39 40 41 42 43 44 45 46 47 48 49 50

000
ASUS43 KOAX 041010
RWRNE

WEATHER ROUNDUP FOR NEBRASKA
NATIONAL WEATHER SERVICE OMAHA NE
400 AM CST SUN DEC 04 2016

NOTES: SATELLITE DATA IS BEING USED TO AUGMENT CLOUD COVER ABOVE
       12000 FEET.
       "FAIR" INDICATES FEW OR NO CLOUDS BELOW 12,000 FEET WITH NO
       SIGNIFICANT WEATHER AND/OR OBSTRUCTIONS TO VISIBILITY.

  * THESE STATIONS DO NOT REPORT WEATHER SUCH AS RAIN...SNOW OR FOG.

NEZ001>004-019>022-054>056-041100-
NEBRASKA PANHANDLE

CITY           SKY/WX    TMP DP  RH WIND       PRES   REMARKS
SCOTTSBLUFF    CLEAR     22  13  68 NW5       30.01S WCI  16
ALLIANCE       CLEAR     17  12  80 W13       29.98R WCI   4
CHADRON        CLOUDY    26  16  65 SW9       29.98S WCI  17
KIMBALL        CLEAR     28  17  63 W17       30.01R WCI  16
SIDNEY         CLEAR     22  13  68 W14       30.01S WCI   9
$$

NEZ057>060-069>072-079>082-041100-
SOUTHWEST NEBRASKA

CITY           SKY/WX    TMP DP  RH WIND       PRES   REMARKS
NORTH PLATTE   CLEAR     20  16  84 W8        29.99S WCI  10
IMPERIAL       CLEAR     25  15  66 W13       30.01S WCI  14
LEXINGTON      FOG       26  25  96 NW5       29.98F VSB 1   WCI  20
MCCOOK         CLEAR     23  18  81 SW13      30.01F WCI  11
OGALLALA       CLOUDY    29  19  65 SW9G16    30.00F WCI  21
$$

NEZ005>010-023>029-035>040-094-041100-
NORTH CENTRAL NEBRASKA

CITY           SKY/WX    TMP DP  RH WIND       PRES   REMARKS
VALENTINE      CLEAR     22  17  81 SW8       29.93S WCI  12
AINSWORTH      CLEAR     27  22  81 W7        29.92S WCI  20
BROKEN BOW     MOCLDY    30  25  81 CALM      29.95F
O`NEILL        CLEAR     29  26  90 SW7       29.92F WCI  22
ORD            MOCLDY    26  23  88 SW3       29.95F
THEDFORD       CLEAR     25  21  85 W5        29.95F WCI  19
$$

NEZ041-046>049-061>064-073>077-083>087-041100-
SOUTH CENTRAL NEBRASKA

CITY           SKY/WX    TMP DP  RH WIND       PRES   REMARKS
GRAND ISLAND   CLEAR     31  31 100 W12       29.98F WCI  22
AURORA         CLOUDY    32  32 100 W7        29.98F WCI  26
HASTINGS       CLOUDY    32  31  96 W12       30.00F WCI  23
HEBRON         CLOUDY    32  32  99 CALM      30.01F
HOLDREGE       CLOUDY    32  31  97 W8        29.99F FOG     WCI  25
KEARNEY *      CLOUDY    30  28  93 W9        29.99S WCI  22
YORK           CLOUDY    32  32 100 W12       29.99F WCI  23
$$

NEZ011>018-030>034-042>045-041100-
NORTHEAST NEBRASKA

CITY           SKY/WX    TMP DP  RH WIND       PRES   REMARKS
NORFOLK        PTCLDY    32  30  92 SW6       29.94F WCI  26
ALBION         CLEAR     32  30  92 W3        29.95F
BLAIR          CLOUDY    33  33  99 SW6       29.98F FOG     WCI  28
FREMONT        CLOUDY    33  33 100 CALM      30.00F
TEKAMAH        CLOUDY    33  31  92 SW6       30.00F WCI  28
WAYNE          CLOUDY    33  32  96 SW5       29.95F WCI  29
$$

NEZ050>053-065>068-078-088>093-041100-
SOUTHEAST NEBRASKA

CITY           SKY/WX    TMP DP  RH WIND       PRES   REMARKS
LINCOLN        CLOUDY    33  32  96 W6        30.03F WCI  28
OMAHA EPPLEY   CLOUDY    35  31  85 SW3       30.01F
BEATRICE       CLOUDY    33  33  99 W8        30.01F WCI  26
FALLS CITY     RAIN      39  39 100 SW9       30.03F WCI  33
NEBRASKA CITY  DRIZZLE   36  36 100 SW7       30.01F WCI  30
PLATTSMOUTH    CLOUDY    34  32  93 SW5       30.01F FOG     WCI  30
$$

NEZ044-045-051>053-067-041100-
OMAHA AREA

CITY           SKY/WX    TMP DP  RH WIND       PRES   REMARKS
OMAHA EPPLEY   CLOUDY    35  31  85 SW3       30.01F
BLAIR          CLOUDY    33  33  99 SW6       29.98F FOG     WCI  28
FREMONT        CLOUDY    33  33 100 CALM      30.00F
MILLARD        CLOUDY    34  32  92 CALM      30.01F
OFFUTT AFB     CLOUDY    34  34 100 SW5       30.01F WCI  30
PLATTSMOUTH    CLOUDY    34  32  93 SW5       30.01F FOG     WCI  30
WAHOO          CLOUDY    33  32  96 W3        30.00F
$$




USA.gov is the U.S. government's official web portal to all federal, state and local government web resources and services.